Location: ????????
(37.6846°N, 24.0673°E)
Time: 14:57:55
(UTC+00:00)

SL-16 R/B - Pass Details

Date: 14 July 2020
Orbit: 985 x 1006 km, 99.5° (Epoch: 04 August)

Event Time Altitude Azimuth Distance (km) Brightness Sun altitude
Exits shadow 01:57:01 11° 263° (W) 2,676 4.3 -13.3°
Maximum altitude 01:57:49 12° 271° (W) 2,659 4.3 -13.1°
Drops below altitude 10° 01:59:49 10° 290° (WNW) 2,778 4.6 -12.8°
Sets 02:04:29 0° 322° (NW) 3,738 5.6 -12.1°
